Flag for United Kingdom Weather past 2 weeks in London, England, United Kingdom

Now
59 °F

Partly sunny.


Feels Like: 58 °F
Forecast: 56 / 65 °F
Wind: 7 mph from Southwest

Location: Northolt

Current Time: Aug 21, 2014 at 8:06:11 PM

Latest Report: Aug 21, 2014 at 6:50 PM


Visibility: N/A

Pressure: 29.89 "Hg

Humidity: 63%

Dew point: 46 °F

Location of LondonLocation

Historic Weather in London — Graph

°F

London temperature yesterday

Maximum temperature yesterday: 64 °F (at 5:50 PM)
Minimum temperature yesterday: 46 °F (at 5:50 AM)
Average temperature yesterday: 55 °F

Past Weeks' High & Low Weather Summary

 TemperatureHumidityPressure
High77 °F (Aug 7, 2:50 PM)100% (Aug 10, 9:50 AM)30.15 "Hg (Aug 10, 9:50 AM)
Low43 °F (Aug 21, 5:50 AM)38% (Aug 17, 3:50 PM)29.30 "Hg (Aug 10, 11:50 AM)
Average61 °F71%29.83 "Hg
* Reported Aug 6 6:50 PM — Aug 21 6:50 PM, London, Weather by CustomWeather, © 2014

Note: Actual official high and low records may vary slightly from our data, if they occured in-between our weather recording intervals... More about our weather records

Advertising

London weather history for previous 24 hours

 ConditionsComfort  
Time TempWeatherWind HumidityBarometerVisibility
6:50 PM
Aug 21
59 °FPartly sunny.7 mph63%29.89 "HgN/A
5:50 PM57 °FBroken clouds.12 mph72%29.92 "HgN/A
4:50 PM59 °FPartly sunny.10 mph68%29.95 "HgN/A
3:50 PM61 °FOvercast.17 mph52%29.95 "HgN/A
2:50 PM63 °FPartly sunny.20 mph52%29.95 "HgN/A
1:50 PM61 °FBroken clouds.15 mph48%29.98 "HgN/A
12:50 PM61 °FBroken clouds.14 mph52%29.98 "HgN/A
11:50 AM63 °FScattered clouds.13 mph49%29.98 "HgN/A
10:50 AM61 °FScattered clouds.13 mph52%30.01 "HgN/A
9:50 AM57 °FScattered clouds.10 mph63%30.01 "HgN/A
8:50 AM54 °FSunny.3 mph77%30.01 "Hg10 mi
7:50 AM48 °FSunny.1 mph87%30.01 "Hg10 mi
6:50 AM45 °FClear.No wind93%30.01 "Hg10 mi
5:50 AM43 °FClear.1 mph93%30.01 "HgN/A
4:50 AM45 °FClear.1 mph93%30.04 "HgN/A
3:50 AM45 °FClear.No wind93%30.04 "HgN/A
2:50 AM46 °FClear.3 mph87%30.04 "HgN/A
1:50 AM46 °FClear.5 mph93%30.04 "HgN/A
12:50 AM50 °FPassing clouds.5 mph82%30.04 "HgN/A
11:50 PM
Aug 20
52 °FClear.5 mph77%30.04 "Hg10 mi
10:50 PM52 °FClear.3 mph77%30.04 "Hg10 mi
9:50 PM55 °FClear.3 mph67%30.04 "Hg10 mi
8:50 PM55 °FSunny.3 mph72%30.04 "Hg10 mi
Weather by CustomWeather, © 2014

See weather overviewHow to use our weather pages